| time (UTC) | temp C | wind direction | speed KPH | gust KPH | rain 1hr cm | rain 24hr cm | rain mn cm | humidity % | barometer mb |
| 20260502224538 | 18 | 127 | 0.0 | 6.4 | 0.00 | 0.00 | 0.00 | 65 | 1017.5 |
| 20260502223042 | 18 | 127 | 0.0 | 6.4 | 0.00 | 0.00 | 0.00 | 64 | 1017.5 |
| 20260502221533 | 18 | 109 | 1.6 | 9.7 | 0.00 | 0.00 | 0.00 | 64 | 1017.5 |
| 20260502220040 | 18 | 91 | 1.6 | 6.4 | 0.00 | 0.00 | 0.00 | 65 | 1017.6 |
| 20260502214538 | 18 | 85 | 3.2 | 12.9 | 0.00 | 0.00 | 0.00 | 65 | 1017.7 |
| 20260502213034 | 18 | 0 | 1.6 | 9.7 | 0.00 | 0.00 | 0.00 | 65 | 1017.9 |
| 20260502211536 | 18 | 111 | 3.2 | 11.3 | 0.00 | 0.00 | 0.00 | 65 | 1017.9 |
| 20260502210035 | 18 | 82 | 3.2 | 14.5 | 0.00 | 0.00 | 0.00 | 65 | 1018.0 |
| 20260502204540 | 18 | 130 | 3.2 | 11.3 | 0.00 | 0.00 | 0.00 | 65 | 1017.8 |
| 20260502203055 | 18 | 0 | 3.2 | 9.7 | 0.00 | 0.00 | 0.00 | 65 | 1017.8 |
| 20260502201542 | 18 | 117 | 3.2 | 11.3 | 0.00 | 0.00 | 0.00 | 64 | 1017.6 |
| 20260502200041 | 18 | 84 | 4.8 | 11.3 | 0.00 | 0.00 | 0.00 | 63 | 1017.5 |
| 20260502194534 | 18 | 116 | 4.8 | 12.9 | 0.00 | 0.00 | 0.00 | 63 | 1017.3 |
| 20260502193035 | 18 | 120 | 3.2 | 12.9 | 0.00 | 0.00 | 0.00 | 62 | 1017.1 |
| 20260502191541 | 18 | 84 | 3.2 | 12.9 | 0.00 | 0.00 | 0.00 | 62 | 1017.2 |
| 20260502190038 | 19 | 126 | 4.8 | 16.1 | 0.00 | 0.00 | 0.00 | 61 | 1017.2 |
| 20260502184535 | 19 | 88 | 8.0 | 17.7 | 0.00 | 0.00 | 0.00 | 61 | 1017.1 |
| 20260502183033 | 19 | 80 | 8.0 | 19.3 | 0.00 | 0.00 | 0.00 | 60 | 1017.1 |
| 20260502181538 | 20 | 92 | 9.7 | 17.7 | 0.00 | 0.00 | 0.00 | 61 | 1017.2 |
| 20260502163044 | 21 | 82 | 8.0 | 17.7 | 0.00 | 0.00 | 0.00 | 55 | 1017.7 |
| 20260502161548 | 21 | 88 | 9.7 | 16.1 | 0.00 | 0.00 | 0.00 | 54 | 1017.7 |
| 20260502151538 | 21 | 105 | 9.7 | 20.9 | 0.00 | 0.00 | 0.00 | 53 | 1018.6 |
| 20260502123059 | 22 | 61 | 11.3 | 24.1 | 0.00 | 0.00 | 0.00 | 50 | 1019.8 |
| 20260502121534 | 22 | 101 | 12.9 | 24.1 | 0.00 | 0.00 | 0.00 | 51 | 1019.7 |
| 20260502114536 | 22 | 90 | 11.3 | 22.5 | 0.00 | 0.00 | 0.00 | 53 | 1020.2 |
| 20260502113044 | 22 | 115 | 8.0 | 17.7 | 0.00 | 0.00 | 0.00 | 53 | 1020.3 |
| 20260502111541 | 21 | 79 | 9.7 | 20.9 | 0.00 | 0.00 | 0.00 | 54 | 1020.3 |
| 20260502110035 | 21 | 115 | 11.3 | 20.9 | 0.00 | 0.00 | 0.00 | 53 | 1020.5 |
| 20260502104538 | 21 | 160 | 11.3 | 22.5 | 0.00 | 0.00 | 0.00 | 53 | 1020.6 |
| 20260502103037 | 21 | 121 | 9.7 | 24.1 | 0.00 | 0.00 | 0.00 | 54 | 1020.5 |
| 20260502101540 | 21 | 131 | 8.0 | 19.3 | 0.00 | 0.00 | 0.00 | 54 | 1020.7 |
| 20260502071535 | 18 | 74 | 1.6 | 6.4 | 0.00 | 0.00 | 0.00 | 62 | 1021.1 |
| 20260502070034 | 18 | 0 | 0.0 | 0.0 | 0.00 | 0.00 | 0.00 | 63 | 1021.1 |
| 20260502064545 | 18 | 0 | 0.0 | 0.0 | 0.00 | 0.00 | 0.00 | 64 | 1021.3 |
| 20260502063037 | 18 | 0 | 0.0 | 0.0 | 0.00 | 0.00 | 0.00 | 64 | 1021.3 |
| 20260502061536 | 18 | 0 | 0.0 | 0.0 | 0.00 | 0.00 | 0.00 | 64 | 1021.2 |
| 20260502060036 | 18 | 0 | 0.0 | 0.0 | 0.00 | 0.00 | 0.00 | 64 | 1020.9 |
| 20260502054536 | 18 | 0 | 0.0 | 0.0 | 0.00 | 0.00 | 0.00 | 64 | 1020.9 |
| 20260502053037 | 18 | 0 | 0.0 | 0.0 | 0.00 | 0.00 | 0.00 | 64 | 1020.9 |
| 20260502051537 | 18 | 0 | 0.0 | 4.8 | 0.00 | 0.00 | 0.00 | 64 | 1020.8 |
| 20260502050043 | 18 | 290 | 1.6 | 4.8 | 0.00 | 0.00 | 0.00 | 64 | 1020.8 |
| 20260502044542 | 18 | 0 | 1.6 | 6.4 | 0.00 | 0.00 | 0.00 | 64 | 1020.7 |
| 20260502043038 | 18 | 0 | 0.0 | 1.6 | 0.00 | 0.00 | 0.00 | 63 | 1020.9 |
| 20260502041534 | 18 | 0 | 1.6 | 4.8 | 0.00 | 0.00 | 0.00 | 63 | 1020.7 |
| 20260502040040 | 18 | 0 | 0.0 | 1.6 | 0.00 | 0.00 | 0.00 | 63 | 1021.1 |
| 20260502034536 | 18 | 150 | 0.0 | 4.8 | 0.00 | 0.00 | 0.00 | 64 | 1021.0 |
| 20260502033037 | 18 | 0 | 0.0 | 0.0 | 0.00 | 0.00 | 0.00 | 64 | 1021.0 |
| 20260502031533 | 18 | 0 | 0.0 | 0.0 | 0.00 | 0.00 | 0.00 | 64 | 1021.1 |
| 20260502030033 | 18 | 0 | 0.0 | 0.0 | 0.00 | 0.00 | 0.00 | 64 | 1021.2 |
| 20260502024534 | 18 | 0 | 0.0 | 0.0 | 0.00 | 0.00 | 0.00 | 64 | 1021.2 |
| 20260502023037 | 18 | 0 | 0.0 | 0.0 | 0.00 | 0.00 | 0.00 | 64 | 1021.2 |
| 20260502021536 | 18 | 0 | 0.0 | 0.0 | 0.00 | 0.00 | 0.00 | 64 | 1021.1 |
| 20260502020036 | 18 | 0 | 0.0 | 0.0 | 0.00 | 0.00 | 0.00 | 64 | 1021.3 |
| 20260502014536 | 18 | 0 | 0.0 | 0.0 | 0.00 | 0.00 | 0.00 | 64 | 1021.4 |
| 20260502013032 | 18 | 0 | 0.0 | 0.0 | 0.00 | 0.00 | 0.00 | 64 | 1021.5 |
| 20260502011540 | 18 | 0 | 0.0 | 4.8 | 0.00 | 0.00 | 0.00 | 64 | 1021.6 |
| 20260502010035 | 18 | 0 | 0.0 | 4.8 | 0.00 | 0.00 | 0.00 | 64 | 1021.7 |
| 20260502004532 | 18 | 124 | 1.6 | 6.4 | 0.00 | 0.00 | 0.00 | 64 | 1021.9 |
| 20260502003034 | 18 | 0 | 0.0 | 0.0 | 0.00 | 0.00 | 0.00 | 64 | 1022.2 |
| 20260502001545 | 18 | 0 | 0.0 | 0.0 | 0.00 | 0.00 | 0.00 | 64 | 1022.6 |
| 20260502000034 | 18 | 0 | 0.0 | 8.0 | 0.00 | 0.00 | 0.00 | 64 | 1022.7 |
| 20260501234538 | 18 | 0 | 0.0 | 8.0 | 0.00 | 0.00 | 0.00 | 64 | 1022.8 |
| 20260501233037 | 18 | 0 | 0.0 | 4.8 | 0.00 | 0.00 | 0.00 | 64 | 1022.9 |
| 20260501231536 | 18 | 141 | 1.6 | 6.4 | 0.00 | 0.00 | 0.00 | 64 | 1023.0 |
| 20260501230032 | 18 | 0 | 0.0 | 4.8 | 0.00 | 0.00 | 0.00 | 64 | 1022.9 |